Location: Unspecified
(52.4361°N, 0.0000°E)
Time: 05:29:02
(UTC+00:00)

DOVE 4 - Visible Passes

Search period start: 14 October 2019 00:00
Search period end: 24 October 2019 00:00
Orbit: 589 x 801 km, 97.8° (Epoch: 13 October)

Date Brightness Start Highest point End Pass type
(mag) Time Alt. Az. Time Alt. Az. Time Alt. Az.
14 Oct ? 02:26:20 10° NNE 02:29:16 33° NE 02:29:16 33° NE visible
14 Oct ? 04:04:29 10° N 04:08:00 25° NW 04:08:00 25° NW visible
15 Oct ? 01:30:04 10° NE 01:31:28 15° NE 01:31:28 15° NE visible
15 Oct ? 03:06:58 10° N 03:10:11 38° N 03:10:11 38° N visible
15 Oct ? 04:46:06 10° NNW 04:48:43 14° NW 04:48:55 14° NW visible
16 Oct ? 02:10:03 10° NNE 02:12:22 25° NE 02:12:22 25° NE visible
16 Oct ? 03:47:53 10° N 03:51:06 29° NNW 03:51:06 29° NNW visible
17 Oct ? 01:14:17 10° NE 01:14:33 11° NE 01:14:33 11° NE visible
17 Oct ? 02:50:33 10° NNE 02:53:17 32° NNE 02:53:17 32° NNE visible
17 Oct ? 04:29:15 10° NNW 04:32:01 17° NW 04:32:01 17° NW visible
18 Oct ? 01:53:51 10° NNE 01:55:27 18° NE 01:55:27 18° NE visible
18 Oct ? 03:31:22 10° N 03:34:11 29° NNW 03:34:11 29° NNW visible
19 Oct ? 02:34:11 10° NNE 02:36:22 26° NNE 02:36:22 26° NNE visible
19 Oct ? 04:12:32 10° N 04:15:05 20° NW 04:15:05 20° NW visible
20 Oct ? 01:37:45 10° NE 01:38:32 13° NE 01:38:32 13° NE visible
20 Oct ? 03:14:52 10° N 03:17:16 27° N 03:17:16 27° N visible
20 Oct ? 04:54:32 10° NNW 04:56:00 12° NW 04:56:00 12° NW visible
21 Oct ? 02:17:52 10° NNE 02:19:27 20° NNE 02:19:27 20° NNE visible
21 Oct ? 03:55:54 10° N 03:58:11 22° NNW 03:58:11 22° NNW visible
22 Oct ? 02:58:25 10° NNE 03:00:21 24° N 03:00:21 24° N visible
22 Oct ? 04:37:27 10° NNW 04:39:05 14° NW 04:39:05 14° NW visible
23 Oct ? 02:01:37 10° NNE 02:02:31 15° NNE 02:02:31 15° NNE visible
23 Oct ? 03:39:18 10° N 03:41:15 21° NNW 03:41:15 21° NNW visible
